Regional Weather Roundup
Issued by NWS

Home | Current Version | Previous Version | Graphics & Text | Print | Product List | Glossary On
Versions: 1 2 3 4 5 6 7 8 9 10 11 12 13 14 15 16 17 18 19 20 21 22 23 24 25 26 27 28 29 30 31 32 33 34 35 36 37 38 39 40 41 42 43 44 45 46 47 48 49 50
000
ASUS43 KMPX 240901
RWRMN
WEATHER ROUNDUP FOR MINNESOTA
NATIONAL WEATHER SERVICE TWIN CITIES/CHANHASSEN MN
400 AM CDT SUN JUL 24 2016


NOTE: "FAIR" INDICATES FEW OR NO CLOUDS BELOW 12,000 FEET WITH NO
SIGNIFICANT WEATHER AND/OR OBSTRUCTIONS TO VISIBILITY. N/A MEANS
CURRENT SKY AND/OR WEATHER CONDITIONS ARE NOT AVAILABLE.

MNZ060>063-068>070-241000-
   Twin Cities Metro

CITY           SKY/WX    TMP DP  RH WIND       PRES   REMARKS
TWIN CITIES    CLOUDY    77  74  90 NW9       29.77R
ST PAUL        CLOUDY    76  74  93 NW10      29.76R
CRYSTAL        CLOUDY    75  67  76 W7        29.75R
BLAINE         CLOUDY    75  75 100 CALM      29.76R
LAKEVILLE      MOCLDY    73  73 100 SW5       29.76R
EDEN PRAIRIE   PTCLDY    76  71  85 N14       29.75R
LAKEVILLE      MOCLDY    73  73 100 SW5       29.76R
SOUTH ST PAUL  CLOUDY    75  74  95 NW6       29.76R
LAKE ELMO      CLOUDY    73  72  94 W7        29.78R
$$
MNZ001>005-007-008-013>017-022>024-027-028-241000-
   Northwest Minnesota

CITY           SKY/WX    TMP DP  RH WIND       PRES   REMARKS
HALLOCK        CLEAR     63  61  94 W8        29.74S
ROSEAU         CLEAR     64  61  88 W9        29.72R
WARROAD        CLEAR     66  63  88 W13       29.71R
THIEF RVR FALL CLEAR     64  61  90 W10       29.78R
CROOKSTON      CLEAR     64  61  88 W8        29.78R
FOSSTON        CLEAR     63  61  94 W7        29.79R
DETROIT LAKES  CLEAR     68  63  83 W10       29.82R
MOORHEAD       CLEAR     66  61  82 W12       29.82R
PARK RAPIDS    CLEAR     67  65  93 W7        29.79R
MAHNOMEN       FAIR      64  62  93 W9        29.79R
$$
MNZ006-009>011-018-025>026-241000-
   North Central Minnesota

CITY           SKY/WX    TMP DP  RH WIND       PRES   REMARKS
BAUDETTE       CLEAR     67  66  97 W7        29.71R
FLAG ISLAND    CLEAR     66  64  94 W15       29.67R
INTL FALLS     CLOUDY    68  65  90 SW5       29.69F
WASKISH        PTCLDY    70  66  88 W13G21    29.73S
BIG FORK       CLOUDY    70  66  88 SW6       29.74S
LONGVILLE      CLEAR     66  64  94 W6        29.76F
GRAND RAPIDS   CLOUDY    69  67  93 SW6       29.77S
ORR            CLOUDY    66  63  88 CALM      29.71S
COOK           CLOUDY    66  64  94 S5        29.74F
WALKER         FAIR      63  62  99 SW3       29.77S FOG
$$
MNZ012-019>021-037-241000-
   Northeast Minnesota

CITY           SKY/WX    TMP DP  RH WIND       PRES   REMARKS
DULUTH         CLOUDY    68  67  96 NW5       29.76R
ELY            CLOUDY    64  64 100 S3        29.75R
HIBBING        CLOUDY    63  63 100 CALM      29.76R FOG
EVELETH        CLOUDY    64  64  98 CALM      29.77S
DULUTH HARBOR  CLOUDY    63  61  94 NE10      29.76R
TWO HARBORS    CLOUDY    68  63  83 CALM      29.75R HAZE
SILVER BAY     CLOUDY    66  64  94 CALM      29.75R
GRAND MARAIS     N/A     61  57  87 NE6       29.73F
G MARAIS ARPRT CLOUDY    63  59  88 CALM      29.78F
$$
MNZ029>031-032-039>041-046>048-054>057-064-241000-
   West Central Minnesota

CITY           SKY/WX    TMP DP  RH WIND       PRES   REMARKS
FERGUS FALLS   CLEAR     66  64  94 NW12      29.83R
WHEATON        CLEAR     70  66  88 W10       29.85R
MORRIS         CLEAR     68  66  94 W8        29.83R
ALEXANDRIA     CLEAR     70  68  93 W8        29.83R
ELBOW LAKE     FAIR      67  65  94 NW8       29.83R
WADENA         CLEAR     66  66 100 W6        29.79S
GLENWOOD       CLEAR     66  66 100 W6        29.84R
APPLETON       CLEAR     70  66  88 W6        29.84R
BENSON         CLEAR     64  63  94 NW3       29.83S FOG
ORTONVILLE     CLEAR     70  63  78 NW8       29.85R
MADISON        CLEAR     68  66  94 W8        29.85S
WILLMAR        FAIR      68  66  94 W6        29.84R
$$
MNZ033>034-036-042>043-049>051-058-059-241000-
   Central Minnesota

CITY           SKY/WX    TMP DP  RH WIND       PRES   REMARKS
ST CLOUD       CLEAR     71  71 100 NW6       29.77S
SAUK CENTRE    FAIR      69  67  95 W6        29.82R
PAYNESVILLE    PTCLDY    67  67 100 W6        29.82R
AITKIN         CLEAR     68  63  83 CALM      29.76S
PINE RIVER     MOCLDY    66  66 100 CALM      29.81S FOG
BRAINERD       CLEAR     69  68  96 W8        29.78R
STAPLES        CLEAR     66  64  94 W5        29.79S
LONG PRAIRIE   FAIR      68  68 100 SW5       29.82R
LITTLE FALLS   CLEAR     70  68  94 W5        29.79S
LITCHFIELD     CLEAR     72  70  94 W9        29.81R
BUFFALO        CLEAR     73  68  83 W5        29.79R
MAPLE LAKE     CLEAR     73  71  91 W7        29.78S
HUTCHINSON     CLOUDY    70  69  96 W5        29.81R
$$
MNZ037-044-045-052-053-241000-
   East Central Minnesota

CITY           SKY/WX    TMP DP  RH WIND       PRES   REMARKS
PRINCETON      CLOUDY    72  70  94 CALM      29.77S
MORA           CLOUDY    64  64 100 CALM      29.77F
CAMBRIDGE      CLOUDY    70  63  78 CALM      29.75F
RUSH CITY      CLOUDY    67  65  94 SE3       29.76F
MOOSE LAKE     CLOUDY    63  61  94 CALM      29.74S
HINCKLEY       FAIR      64  64 100 CALM      29.74F
CLOQUET        CLOUDY    64  63  94 NW3       29.77R FOG
MCGREGOR       CLOUDY    64  63  94 CALM      29.77R
$$
MNZ071>073-080-081-089-090-097-098-241000-
   Southwest Minnesota

CITY           SKY/WX    TMP DP  RH WIND       PRES   REMARKS
MONTEVIDEO     CLEAR     70  70 100 NW7       29.86R
GRANITE FALLS  CLEAR     72  71  96 W5        29.86R
CANBY          CLEAR     70  64  82 NW7       29.87S
MARSHALL       CLEAR     70  67  90 NW9       29.86R
REDWOOD FALLS  CLEAR     74  68  81 NW12G18   29.82R
OLIVIA         CLEAR     70  66  88 NW8       29.82R
PIPESTONE      CLEAR     73  66  78 NW6       29.91R
WINDOM         CLEAR     73  70  88 NW13      29.85R
WORTHINGTON    CLEAR     72  68  87 NW10      29.89R
JACKSON        CLEAR     75  68  78 NW12G18   29.86R
TRACY          CLEAR     72  69  91 NW9       29.87R
SLAYTON        CLEAR     69  66  89 NW9       29.90S
$$
MNZ065>067-074>077-082>085-091>093-241000-
   South Central Minnesota

CITY           SKY/WX    TMP DP  RH WIND       PRES   REMARKS
MANKATO        MOCLDY    75  72  88 SW5       29.77F
NEW ULM        CLEAR     75  75 100 NW15      29.79R
ST JAMES       CLEAR     72  66  83 W12G20    29.81S
FAIRMONT       CLEAR     77  36  22 NW14      29.81R
GLENCOE        MOCLDY    72  70  95 NW12      29.79R
FARIBAULT      CLOUDY    75  73  94 S6        29.77F FOG
OWATONNA       PTCLDY    75  73  94 S8        29.78S FOG
WASECA         PTCLDY    77  73  88 S5        29.80S
ALBERT LEA     MOCLDY    75  75 100 CALM      29.81R FOG
$$
MNZ078>079-086>088-094>096-241000-
   Southeast Minnesota

CITY           SKY/WX    TMP DP  RH WIND       PRES   REMARKS
ROCHESTER      CLOUDY    73  73 100 S7        29.80F FOG
RED WING       CLOUDY    75  73  94 CALM      29.74F
STANTON        CLOUDY    75  73  94 S6        29.74F
DODGE CENTER   CLOUDY    73  72  94 SW8       29.80F FOG
WINONA         CLOUDY    73  72  94 CALM      29.78F
AUSTIN         CLOUDY    73  72  94 S5        29.80F FOG
PRESTON        CLEAR     73  72  94 SW9       29.82S
$$
ABBREVIATIONS USED IN REMARKS
   TC - TEMPERATURES IN CELSIUS
  WCI - WIND CHILL INDEX
   HX - HEAT INDEX
  VSB - VISIBILITY
$$




USA.gov is the U.S. government's official web portal to all federal, state and local government web resources and services.